| time (UTC) | temp F | wind direction | speed knots | gust knots | rain 1hr in | rain 24hr in | rain mn in | humidity % | barometer mb |
| 20260506155002 | 60 | 255 | 0.9 | 1.7 | 0.00 | 0.00 | 0.00 | 56 | 1030.3 |
| 20260506154001 | 59 | 176 | 0.9 | 2.6 | 0.00 | 0.00 | 0.00 | 56 | 1030.3 |
| 20260506153023 | 60 | 0 | 0.9 | 2.6 | 0.00 | 0.00 | 0.00 | 55 | 1030.3 |
| 20260506152001 | 60 | 12 | 1.7 | 2.6 | 0.00 | 0.00 | 0.00 | 57 | 1030.3 |
| 20260506151002 | 59 | 242 | 1.7 | 2.6 | 0.00 | 0.00 | 0.00 | 57 | 1030.4 |
| 20260506150023 | 59 | 153 | 0.9 | 1.7 | 0.00 | 0.00 | 0.00 | 58 | 1030.5 |
| 20260506144002 | 59 | 254 | 0.9 | 0.9 | 0.00 | 0.00 | 0.00 | 58 | 1030.4 |
| 20260506143001 | 60 | 44 | 0.9 | 0.9 | 0.00 | 0.00 | 0.00 | 57 | 1030.4 |
| 20260506142002 | 61 | 236 | 0.9 | 2.6 | 0.00 | 0.00 | 0.00 | 55 | 1030.4 |
| 20260506141002 | 60 | 52 | 3.5 | 7.0 | 0.00 | 0.00 | 0.00 | 56 | 1030.3 |
| 20260506140002 | 62 | 157 | 0.9 | 2.6 | 0.00 | 0.00 | 0.00 | 54 | 1030.3 |
| 20260506135002 | 63 | 44 | 1.7 | 2.6 | 0.00 | 0.00 | 0.00 | 52 | 1030.2 |
| 20260506134002 | 63 | 130 | 0.9 | 2.6 | 0.00 | 0.00 | 0.00 | 52 | 1030.1 |
| 20260506133002 | 63 | 111 | 1.7 | 4.3 | 0.00 | 0.00 | 0.00 | 51 | 1030.1 |
| 20260506132001 | 63 | 64 | 2.6 | 6.1 | 0.00 | 0.00 | 0.00 | 52 | 1030.1 |
| 20260506130001 | 63 | 112 | 0.9 | 1.7 | 0.00 | 0.00 | 0.00 | 53 | 1030.0 |
| 20260506125002 | 63 | 103 | 1.7 | 6.1 | 0.00 | 0.00 | 0.00 | 53 | 1030.0 |
| 20260506124002 | 61 | 153 | 1.7 | 4.3 | 0.00 | 0.00 | 0.00 | 56 | 1029.9 |
| 20260506121002 | 60 | 176 | 0.9 | 0.9 | 0.00 | 0.00 | 0.00 | 62 | 1029.9 |
| 20260506115002 | 59 | 170 | 0.0 | 0.0 | 0.00 | 0.00 | 0.00 | 65 | 1029.6 |
| 20260506114002 | 59 | 224 | 0.9 | 1.7 | 0.00 | 0.00 | 0.00 | 65 | 1029.5 |
| 20260506113002 | 60 | 234 | 0.9 | 0.9 | 0.00 | 0.00 | 0.00 | 63 | 1029.5 |
| 20260506112023 | 60 | 226 | 0.9 | 0.9 | 0.00 | 0.00 | 0.00 | 62 | 1029.4 |
| 20260506111001 | 61 | 150 | 0.0 | 0.0 | 0.00 | 0.00 | 0.00 | 62 | 1029.3 |
| 20260506110002 | 61 | 234 | 0.0 | 0.0 | 0.00 | 0.00 | 0.00 | 60 | 1029.2 |
| 20260506105002 | 62 | 156 | 0.0 | 0.0 | 0.00 | 0.00 | 0.00 | 59 | 1029.2 |
| 20260506104001 | 62 | 199 | 0.9 | 2.6 | 0.00 | 0.00 | 0.00 | 59 | 1029.2 |
| 20260506103002 | 63 | 194 | 0.9 | 2.6 | 0.00 | 0.00 | 0.00 | 59 | 1029.2 |
| 20260506102002 | 64 | 210 | 0.9 | 1.7 | 0.00 | 0.00 | 0.00 | 57 | 1029.1 |
| 20260506101007 | 64 | 199 | 0.0 | 0.0 | 0.00 | 0.00 | 0.00 | 56 | 1029.0 |
| 20260506100003 | 65 | 177 | 0.9 | 0.9 | 0.00 | 0.00 | 0.00 | 54 | 1029.0 |
| 20260506095002 | 66 | 114 | 0.9 | 1.7 | 0.00 | 0.00 | 0.00 | 53 | 1028.8 |
| 20260506094023 | 66 | 121 | 1.7 | 2.6 | 0.00 | 0.00 | 0.00 | 52 | 1028.7 |
| 20260506093002 | 67 | 116 | 1.7 | 4.3 | 0.00 | 0.00 | 0.00 | 51 | 1028.6 |
| 20260506092001 | 67 | 107 | 1.7 | 2.6 | 0.00 | 0.00 | 0.00 | 51 | 1028.5 |
| 20260506091002 | 68 | 112 | 2.6 | 5.2 | 0.00 | 0.00 | 0.00 | 50 | 1028.4 |
| 20260506090023 | 68 | 107 | 1.7 | 2.6 | 0.00 | 0.00 | 0.00 | 50 | 1028.4 |
| 20260506085001 | 68 | 124 | 1.7 | 2.6 | 0.00 | 0.00 | 0.00 | 49 | 1028.3 |
| 20260506084001 | 69 | 98 | 2.6 | 6.1 | 0.00 | 0.00 | 0.00 | 48 | 1028.3 |
| 20260506083002 | 69 | 84 | 2.6 | 4.3 | 0.00 | 0.00 | 0.00 | 48 | 1028.3 |
| 20260506082023 | 69 | 92 | 2.6 | 5.2 | 0.00 | 0.00 | 0.00 | 50 | 1028.3 |
| 20260506081002 | 69 | 121 | 0.9 | 1.7 | 0.00 | 0.00 | 0.00 | 49 | 1028.3 |
| 20260506073002 | 69 | 96 | 4.3 | 7.0 | 0.00 | 0.00 | 0.00 | 48 | 1028.3 |
| 20260506072002 | 70 | 96 | 4.3 | 7.0 | 0.00 | 0.00 | 0.00 | 49 | 1028.3 |
| 20260506071002 | 70 | 90 | 3.5 | 10.4 | 0.00 | 0.00 | 0.00 | 49 | 1028.2 |
| 20260506062002 | 71 | 114 | 1.7 | 5.2 | 0.00 | 0.00 | 0.00 | 48 | 1028.2 |
| 20260506061022 | 71 | 74 | 2.6 | 6.1 | 0.00 | 0.00 | 0.00 | 47 | 1028.2 |
| 20260506051002 | 71 | 99 | 4.3 | 12.2 | 0.00 | 0.00 | 0.00 | 48 | 1028.4 |
| 20260506045002 | 71 | 105 | 4.3 | 8.7 | 0.00 | 0.00 | 0.00 | 49 | 1028.6 |
| 20260506044002 | 71 | 28 | 3.5 | 6.1 | 0.00 | 0.00 | 0.00 | 49 | 1028.8 |
| 20260506043002 | 70 | 34 | 3.5 | 6.1 | 0.00 | 0.00 | 0.00 | 49 | 1028.9 |
| 20260506041002 | 70 | 32 | 3.5 | 6.1 | 0.00 | 0.00 | 0.00 | 50 | 1029.3 |
| 20260506040002 | 69 | 32 | 3.5 | 7.0 | 0.00 | 0.00 | 0.00 | 50 | 1029.5 |
| 20260506035023 | 69 | 28 | 2.6 | 5.2 | 0.00 | 0.00 | 0.00 | 52 | 1029.5 |
| 20260506034003 | 69 | 74 | 3.5 | 7.8 | 0.00 | 0.00 | 0.00 | 52 | 1029.6 |
| 20260506033002 | 68 | 76 | 4.3 | 7.0 | 0.00 | 0.00 | 0.00 | 52 | 1029.7 |
| 20260506032002 | 68 | 94 | 3.5 | 7.8 | 0.00 | 0.00 | 0.00 | 52 | 1029.8 |
| 20260506031002 | 68 | 76 | 2.6 | 4.3 | 0.00 | 0.00 | 0.00 | 54 | 1029.9 |
| 20260506030002 | 67 | 98 | 3.5 | 6.1 | 0.00 | 0.00 | 0.00 | 54 | 1030.0 |
| 20260506025002 | 67 | 60 | 1.7 | 6.1 | 0.00 | 0.00 | 0.00 | 55 | 1030.0 |
| 20260506024002 | 66 | 2 | 4.3 | 10.4 | 0.00 | 0.00 | 0.00 | 55 | 1030.1 |
| 20260506023002 | 66 | 96 | 3.5 | 7.0 | 0.00 | 0.00 | 0.00 | 55 | 1030.2 |
| 20260506022002 | 66 | 18 | 2.6 | 4.3 | 0.00 | 0.00 | 0.00 | 56 | 1030.3 |
| 20260506021023 | 65 | 44 | 2.6 | 6.1 | 0.00 | 0.00 | 0.00 | 57 | 1030.4 |
| 20260506020023 | 64 | 92 | 0.9 | 2.6 | 0.00 | 0.00 | 0.00 | 60 | 1030.4 |
| 20260506014003 | 63 | 11 | 2.6 | 7.0 | 0.00 | 0.00 | 0.00 | 61 | 1030.4 |
| 20260506013002 | 63 | 21 | 2.6 | 6.1 | 0.00 | 0.00 | 0.00 | 61 | 1030.4 |
| 20260506012003 | 62 | 34 | 2.6 | 7.0 | 0.00 | 0.00 | 0.00 | 61 | 1030.4 |
| 20260506011002 | 62 | 12 | 4.3 | 8.7 | 0.00 | 0.00 | 0.00 | 62 | 1030.4 |
| 20260506010024 | 61 | 69 | 2.6 | 5.2 | 0.00 | 0.00 | 0.00 | 64 | 1030.4 |
| 20260506005002 | 60 | 62 | 4.3 | 8.7 | 0.00 | 0.00 | 0.00 | 65 | 1030.2 |
| 20260506004002 | 60 | 83 | 3.5 | 7.0 | 0.00 | 0.00 | 0.00 | 66 | 1030.1 |
| 20260506003002 | 59 | 120 | 2.6 | 7.0 | 0.00 | 0.00 | 0.00 | 66 | 1029.9 |
| 20260506002002 | 59 | 76 | 3.5 | 8.7 | 0.00 | 0.00 | 0.00 | 67 | 1029.9 |
| 20260506001023 | 58 | 83 | 2.6 | 7.0 | 0.00 | 0.00 | 0.00 | 68 | 1029.7 |
| 20260506000002 | 58 | 82 | 7.0 | 12.2 | 0.00 | 0.00 | 0.00 | 68 | 1029.5 |
| 20260505235023 | 57 | 103 | 5.2 | 10.4 | 0.00 | 0.00 | 0.00 | 69 | 1029.4 |
| 20260505234002 | 57 | 53 | 4.3 | 7.8 | 0.00 | 0.00 | 0.00 | 70 | 1029.3 |
| 20260505233002 | 56 | 101 | 2.6 | 6.1 | 0.00 | 0.00 | 0.00 | 72 | 1029.2 |
| 20260505232002 | 56 | 189 | 2.6 | 5.2 | 0.00 | 0.00 | 0.00 | 72 | 1029.1 |
| 20260505231002 | 55 | 47 | 1.7 | 5.2 | 0.00 | 0.00 | 0.00 | 72 | 1029.1 |
| 20260505230002 | 55 | 252 | 2.6 | 6.1 | 0.00 | 0.00 | 0.00 | 73 | 1028.8 |
| 20260505225023 | 55 | 176 | 1.7 | 2.6 | 0.00 | 0.00 | 0.00 | 72 | 1028.9 |
| 20260505224002 | 55 | 113 | 1.7 | 5.2 | 0.00 | 0.00 | 0.00 | 72 | 1028.7 |
| 20260505223023 | 55 | 58 | 1.7 | 2.6 | 0.00 | 0.00 | 0.00 | 72 | 1028.5 |
| 20260505222002 | 55 | 91 | 1.7 | 5.2 | 0.00 | 0.00 | 0.00 | 72 | 1028.4 |
| 20260505221023 | 55 | 0 | 1.7 | 4.3 | 0.00 | 0.00 | 0.00 | 73 | 1028.3 |
| 20260505220002 | 55 | 179 | 1.7 | 5.2 | 0.00 | 0.00 | 0.00 | 72 | 1028.2 |
| 20260505215002 | 55 | 221 | 2.6 | 5.2 | 0.00 | 0.00 | 0.00 | 72 | 1028.1 |
| 20260505214002 | 55 | 37 | 2.6 | 6.1 | 0.00 | 0.00 | 0.00 | 73 | 1028.0 |
| 20260505213002 | 54 | 36 | 1.7 | 2.6 | 0.00 | 0.00 | 0.00 | 75 | 1027.9 |
| 20260505212002 | 54 | 22 | 0.9 | 1.7 | 0.00 | 0.00 | 0.00 | 76 | 1027.9 |
| 20260505211023 | 54 | 229 | 0.9 | 1.7 | 0.00 | 0.00 | 0.00 | 76 | 1027.9 |
| 20260505210002 | 54 | 207 | 0.9 | 5.2 | 0.00 | 0.00 | 0.00 | 75 | 1027.8 |
| 20260505205002 | 54 | 2 | 1.7 | 4.3 | 0.00 | 0.00 | 0.00 | 73 | 1027.7 |
| 20260505204002 | 55 | 226 | 1.7 | 4.3 | 0.00 | 0.00 | 0.00 | 72 | 1027.7 |
| 20260505202023 | 56 | 234 | 2.6 | 5.2 | 0.00 | 0.00 | 0.00 | 69 | 1027.5 |
| 20260505201002 | 56 | 214 | 1.7 | 5.2 | 0.00 | 0.00 | 0.00 | 70 | 1027.5 |
| 20260505200002 | 56 | 99 | 4.3 | 7.0 | 0.00 | 0.00 | 0.00 | 69 | 1027.4 |
| 20260505195023 | 57 | 130 | 4.3 | 7.8 | 0.00 | 0.00 | 0.00 | 69 | 1027.4 |
| 20260505194023 | 57 | 130 | 2.6 | 8.7 | 0.00 | 0.00 | 0.00 | 68 | 1027.4 |
| 20260505193002 | 57 | 175 | 2.6 | 5.2 | 0.00 | 0.00 | 0.00 | 68 | 1027.4 |
| 20260505192002 | 57 | 210 | 1.7 | 7.8 | 0.00 | 0.00 | 0.00 | 67 | 1027.4 |
| 20260505191023 | 57 | 162 | 1.7 | 4.3 | 0.00 | 0.00 | 0.00 | 66 | 1027.3 |
| 20260505185002 | 58 | 129 | 2.6 | 6.1 | 0.00 | 0.00 | 0.00 | 65 | 1027.3 |
| 20260505184023 | 57 | 89 | 4.3 | 7.8 | 0.00 | 0.00 | 0.00 | 66 | 1027.3 |
| 20260505183002 | 57 | 33 | 2.6 | 7.8 | 0.00 | 0.00 | 0.00 | 65 | 1027.5 |
| 20260505182002 | 58 | 231 | 2.6 | 6.1 | 0.00 | 0.00 | 0.00 | 63 | 1027.4 |
| 20260505181023 | 59 | 126 | 2.6 | 6.1 | 0.00 | 0.00 | 0.00 | 62 | 1027.3 |
| 20260505180002 | 59 | 167 | 1.7 | 2.6 | 0.00 | 0.00 | 0.00 | 61 | 1027.2 |
| 20260505175002 | 59 | 106 | 1.7 | 4.3 | 0.00 | 0.00 | 0.00 | 60 | 1027.3 |
| 20260505174023 | 59 | 93 | 4.3 | 7.0 | 0.00 | 0.00 | 0.00 | 60 | 1027.3 |
| 20260505173002 | 59 | 90 | 4.3 | 7.0 | 0.00 | 0.00 | 0.00 | 60 | 1027.2 |
| 20260505172022 | 60 | 91 | 4.3 | 7.8 | 0.00 | 0.00 | 0.00 | 59 | 1027.3 |
| 20260505171003 | 60 | 85 | 3.5 | 7.0 | 0.00 | 0.00 | 0.00 | 58 | 1027.2 |
| 20260505170001 | 61 | 115 | 1.7 | 4.3 | 0.00 | 0.00 | 0.00 | 57 | 1027.1 |
| 20260505165002 | 61 | 96 | 5.2 | 8.7 | 0.00 | 0.00 | 0.00 | 57 | 1027.1 |
| 20260505164002 | 61 | 114 | 3.5 | 11.3 | 0.00 | 0.00 | 0.00 | 57 | 1027.1 |
| 20260505163002 | 61 | 107 | 1.7 | 4.3 | 0.00 | 0.00 | 0.00 | 57 | 1027.0 |
| 20260505162002 | 61 | 94 | 3.5 | 7.0 | 0.00 | 0.00 | 0.00 | 57 | 1027.0 |
| 20260505161002 | 61 | 109 | 4.3 | 7.8 | 0.00 | 0.00 | 0.00 | 57 | 1026.9 |